Skip Page Navigation
NASA JPL Caltech
NASA Logo - Jet Propulsion Laboratory + View the NASA Portal
+ Center for Near-Earth Object Studies
JPL Home Earth Solar System Stars & Galaxies Technology
JPL Solar System Dynamics
BODIES ORBITS EPHEMERIDES TOOLS PHYSICAL DATA DISCOVERY FAQ SITE MAP
JPL Small-Body Database Browser
Search: [ help ]  
249129 (2007 YR47)
Classification: Main-belt Asteroid          SPK-ID: 2249129
Ephemeris | Orbit Diagram | Orbital Elements | Mission Design | Physical Parameters | Discovery Circumstances | Close-Approach Data ]

[ show orbit diagram ]
Orbital Elements at Epoch 2459000.5 (2020-May-31.0) TDB
Reference: JPL 14 (heliocentric ecliptic J2000)
 Element Value Uncertainty (1-sigma)   Units 
e .2307363732001967 5.0889e-08  
a 2.346133353813743 1.3804e-08 au
q 1.804795052710746 1.174e-07 au
i 6.147883009590014 4.8712e-06 deg
node 93.80671325860779 5.0251e-05 deg
peri 314.830810282615 5.193e-05 deg
M 186.7113391260112 1.2576e-05 deg
tp 2459632.322535884257
(2022-Feb-21.82253588)
4.8999e-05 TDB
period 1312.585092245205
3.59
1.1584e-05
3.172e-08
d
yr
n .2742679328958492 2.4205e-09 deg/d
Q 2.88747165491674 1.6989e-08 au
  Orbit Determination Parameters
   # obs. used (total)      285  
   data-arc span      7061 days (19.33 yr)  
   first obs. used      2000-12-27  
   last obs. used      2020-04-27  
   planetary ephem.      DE431  
   SB-pert. ephem.      SB431-N16  
   condition code      0  
   norm. resid. RMS      .54912  
   source      ORB  
   producer      Otto Matic  
   solution date      2020-May-21 13:40:34  

Additional Information
 Earth MOID = .821556 au 
 Jupiter MOID = 2.50421 au 
 T_jup = 3.517 
[ show covariance matrix ]

Ephemeris | Orbit Diagram | Orbital Elements | Mission Design | Physical Parameters | Discovery Circumstances | Close-Approach Data ]

Physical Parameter Table
Parameter Symbol Value Units Sigma Reference Notes
absolute magnitude H 17.1   n/a MPO460089  
diameter diameter 2.282 km 0.577 urn:nasa:pds:neowise_diameters_albedos::2.0[mainbelt] (http://adsabs.harvard.edu/abs/2016AJ....152...63N)  
geometric albedo albedo 0.046   0.030 urn:nasa:pds:neowise_diameters_albedos::2.0[mainbelt] (http://adsabs.harvard.edu/abs/2011ApJ...741...68M)  

249129 (2007 YR47)          Discovered 2007-Dec-30 by Chante-Perdrix at Chante-Perdrix
Reference: 20100824/Numbers.arcLast Updated: 2010-08-27

[ hide close-approach data ]
Close-Approach Data   ...sorted by Date/Time (TDB)
Date/Time (TDB) Time Uncertainty
(days_HH:MM)
Body Nominal Distance (au) Minimum Distance (au) Maximum Distance (au) V-relative (km/s) V-infinity (km/s) JD (TDB) Time Uncertainty (minutes) Semi-major axis (km) Semi-minor axis (km) range-LOV angle (deg) N-sigma BP Orbit Ref. Reference Modified
2042-Jun-27 15:17 00:01 Iris 0.0360846516358536 0.0360718511394996 0.0360974531970073 3.3394798444608 3.33947979675494 2467063.136977185 1.37772419053968 709.30765883172 59.8973396936266 26.0384720491791 40116.1414576196 T 14 CATAB v2.0f-lin.ifort 2020-May-21 13:40:53 2020-May-21 13:41
2043-Dec-18 12:16 00:03 Iris 0.0462883673875203 0.0462871849607987 0.046289553201448 4.75127688722742 4.75127686108831 2467602.011313143 3.33730106431295 1137.53948269277 49.3180715631522 -88.3650642007342 140295.217654699 T 14 CATAB v2.0f-lin.ifort 2020-May-21 13:40:53 2020-May-21 13:41
2189-Nov-26 19:33 00:08 Iris 0.0427368009560981 0.0426633657133286 0.0428102553670919 3.29263730812763 3.29263726727433 2520906.314330032 8.45898886984076 3927.62943112628 56.3167921085302 -21.2957078161438 41223.3740250764 T 14 CATAB v2.0f-lin.ifort 2020-May-21 13:40:53 2020-May-21 13:41
Ephemeris | Orbit Diagram | Orbital Elements | Mission Design | Physical Parameters | Discovery Circumstances | Close-Approach Data ]
ABOUT SSD CREDITS/AWARDS PRIVACY/COPYRIGHT GLOSSARY LINKS
FirstGov 2020-Sep-30 20:53 UT
(server date/time)  
NASA Home Page
Site Manager:   Ryan S. Park
Webmaster  Alan B. Chamberlin